This demonstration page uses our WeatherBlox Daily Observations layout. Learn more.

Left ArrowRight Arrow

39.08367, -84.50855

Hourly Observations for December 1, 2015

Temp ( °F °C ) Dew Point ( °F °C ) Humidity (%) Winds ( mph kmh ) Pressure ( in mb ) Visibility ( mi km ) Precip ( " mm )
12:53 am 00:53 Cloudy with Mist and Fog 46 7.8 46 7.8 100 100 Calm 29.97 1015 5 8 0.01 0.25
1:07 am 01:07 Cloudy with Heavy Rain 46 7.8 46 7.8 100 100 E 5 7 29.97 1015 3 4 0.03 0.76
1:20 am 01:20 Cloudy with Rain 46 8 46 8 100 100 ESE 7 11 29.94 1014 3 4 0.00 0.00
1:33 am 01:33 Cloudy with Rain 47 8.3 47 8.3 100 100 NE 5 7 29.94 1014 4 6 0.10 2.54
1:53 am 01:53 Cloudy with Light Rain 48 8.9 47 8.3 96 96 Calm 29.93 1014 9 14 0.12 3.05
2:00 am 02:00 Cloudy 48 8.9 47 8.3 96 96 Calm 29.94 1014 10 16 0.00 0.03
2:53 am 02:53 Cloudy with Mist and Fog 47 8.3 47 8.3 100 100 NNE 3 6 29.91 1013 6 10 0.01 0.25
3:53 am 03:53 Cloudy with Mist and Fog 48 8.9 48 8.9 100 100 Calm 29.90 1013 3 4 0.00 0.00
4:00 am 04:00 Cloudy with Mist and Fog 48 9 48 9 100 100 Calm 29.94 1014 3 5 0.00 0.00
4:42 am 04:42 Cloudy with Rain 48 9 48 9 100 100 S 5 7 29.94 1014 3 4 0.00 0.00
4:53 am 04:53 Cloudy with Heavy Rain 49 9.4 49 9.4 100 100 SSW 6 9 29.89 1012 2 3 0.10 2.54
5:11 am 05:11 Cloudy with Heavy Rain 50 10 50 10 100 100 SSW 6 9 29.91 1013 3 5 0.07 1.78
5:37 am 05:37 Cloudy with Light Rain 53 11.7 53 11.7 100 100 WSW 8 13 29.91 1013 10 16 0.10 2.54
5:53 am 05:53 Cloudy with Light Rain 54 12.2 54 12.2 100 100 SSW 6 9 29.85 1011 10 16 0.10 2.54
6:53 am 06:53 Cloudy 53 11.7 53 11.7 100 100 Calm 29.88 1012 10 16 0.01 0.25
7:53 am 07:53 Cloudy with Light Rain 54 12.2 54 12.2 100 100 WSW 5 7 29.87 1012 3 5 0.01 0.25
8:29 am 08:29 Cloudy with Light Rain 55 12.8 55 12.8 100 100 VRB 3 6 29.91 1013 3 4 0.01 0.25
8:40 am 08:40 Cloudy with Light Rain 54 12 54 12 100 100 SE 5 7 29.91 1013 2 3 0.00 0.00
8:44 am 08:44 Cloudy with Light Rain 54 12 54 12 100 100 SE 5 7 29.91 1013 2 3 0.00 0.00
8:53 am 08:53 Cloudy with Light Rain 54 12.2 54 12.2 100 100 SSE 3 6 29.88 1012 2 3 0.02 0.51
8:58 am 08:58 Cloudy with Light Rain 54 12 54 12 100 100 Calm 29.91 1013 3 4 0.00 0.00
9:05 am 09:05 Cloudy with Light Rain 54 12.2 54 12.2 100 100 SE 3 6 29.91 1013 3 5 0.00 0.03
9:53 am 09:53 Cloudy with Rain 56 13.3 55 12.8 97 97 WSW 7 11 29.89 1012 3 5 0.02 0.51
10:39 am 10:39 Cloudy with Light Rain 55 12.8 54 12.2 96 96 VRB 6 9 29.94 1014 8 13 0.00 0.03
10:46 am 10:46 Cloudy 55 13 54 12 94 94 WSW 7 11 29.94 1014 10 16 0.00 0.00
10:53 am 10:53 Cloudy 55 12.8 53 11.7 93 93 W 7 11 29.90 1013 10 16 0.00 0.03
11:01 am 11:01 Cloudy with Light Rain 55 12.8 53 11.7 93 93 WNW 6 9 29.94 1014 5 8 0.00 0.03
11:53 am 11:53 Cloudy with Light Rain 54 12.2 53 11.7 97 97 SW 3 6 29.90 1012 5 8 0.01 0.25
12:01 pm 12:01 Cloudy with Light Rain 54 12.2 53 11.7 97 97 W 7 11 29.94 1014 5 8 0.00 0.03
12:53 pm 12:53 Cloudy with Mist and Fog 53 11.7 52 11.1 96 96 WSW 6 9 29.89 1012 4 6 0.00 0.03
1:53 pm 13:53 Cloudy with Mist and Fog 51 10.6 50 10 96 96 W 10 17 29.88 1012 6 10 0.00 0.03
2:53 pm 14:53 Cloudy 52 11.1 50 10 93 93 Calm 29.88 1012 10 16 0.00 0.03
3:53 pm 15:53 Cloudy 53 11.7 48 8.9 83 83 SW 10 17 29.89 1012 10 16 0.00 0.00
4:20 pm 16:20 Mostly Cloudy 54 12 48 9 82 82 WSW 6 9 29.94 1014 10 16 0.00 0.00
4:53 pm 16:53 Mostly Cloudy 51 10.6 47 8.3 86 86 SSW 3 6 29.91 1013 10 16 0.00 0.00
5:53 pm 17:53 Partly Cloudy 50 10 44 6.7 80 80 NW 8 13 29.93 1014 10 16 0.00 0.00
6:53 pm 18:53 Cloudy with Mist and Fog 45 7 45 7 100 100 NE 3 6 30.06 1018 3 4 0.00 0.00
7:53 pm 19:53 Clear 48 8.9 42 5.6 80 80 Calm 29.96 1014 10 16 0.00 0.00
8:53 pm 20:53 Clear 43 6.1 41 5 93 93 SW 3 6 29.97 1015 10 16 0.00 0.00
9:53 pm 21:53 Clear 43 6.1 42 5.6 97 97 Calm 29.96 1015 10 16 0.00 0.00
10:53 pm 22:53 Clear 41 5 41 5 100 100 Calm 29.96 1015 10 16 0.00 0.00
11:53 pm 23:53 Clear 42 5.6 41 5 96 96 Calm 29.94 1014 10 16 0.00 0.00

Powered by AerisWeather